• In Netherlands
  • List of Countries
  • For 7 days
  • Water Temperature
  • Satellite Maps
  • Weather Map
  • Weather Widgets
  • user-avatar
    Login

    Hourly Weather Asadabad

    Today, 26 June, Monday

    Time Temperature Precipitation Wind Pressure Humidity
    00:00 +28°C° 0.2 mm 1 mps 654 mmHg 60%
    01:00 +27°C° 0.2 mm 1 mps 654 mmHg 61%
    02:00 +27°C° 0.2 mm 1 mps 654 mmHg 62%
    03:00 +27°C° 0.4 mm 1 mps 654 mmHg 63%
    04:00 +26°C° 0.4 mm 1 mps 654 mmHg 65%
    05:00 +24°C° 0 mm 0 mps 654 mmHg 69%
    06:00 +27°C° 0.4 mm 1 mps 655 mmHg 64%
    07:00 +28°C° 0.4 mm 1 mps 655 mmHg 58%
    08:00 +30°C° 0.4 mm 1 mps 656 mmHg 53%
    09:00 +31°C° 0.5 mm 1 mps 656 mmHg 50%
    10:00 +32°C° 0.5 mm 2 mps 656 mmHg 47%
    11:00 +33°C° 0 mm 3 mps 657 mmHg 48%
    12:00 +33°C° 0.3 mm 3 mps 656 mmHg 46%
    13:00 +34°C° 0.3 mm 3 mps 656 mmHg 44%
    14:00 +35°C° 0.3 mm 3 mps 656 mmHg 42%
    15:00 +35°C° 0.2 mm 3 mps 656 mmHg 42%
    16:00 +35°C° 0.2 mm 2 mps 656 mmHg 42%
    17:00 +35°C° 0.2 mm 2 mps 655 mmHg 42%
    18:00 +34°C° 0.2 mm 2 mps 655 mmHg 46%
    19:00 +31°C° 0.2 mm 1 mps 655 mmHg 50%
    20:00 +30°C° 0.2 mm 1 mps 655 mmHg 54%
    21:00 +30°C° 0.2 mm 1 mps 655 mmHg 55%
    22:00 +29°C° 0.2 mm 1 mps 655 mmHg 57%
    23:00 +28°C° 0.2 mm 1 mps 655 mmHg 58%

    Tomorrow, 27 June, Tuesday

    Time Temperature Precipitation Wind Pressure Humidity
    00:00 +28°C° 0.3 mm 1 mps 655 mmHg 58%
    01:00 +28°C° 0.3 mm 1 mps 655 mmHg 58%
    02:00 +27°C° 0.3 mm 1 mps 655 mmHg 58%
    03:00 +27°C° 0.2 mm 1 mps 655 mmHg 58%
    04:00 +26°C° 0.2 mm 1 mps 655 mmHg 57%
    05:00 +26°C° 0.2 mm 1 mps 655 mmHg 56%
    06:00 +28°C° 0.1 mm 1 mps 655 mmHg 50%
    07:00 +29°C° 0.1 mm 1 mps 656 mmHg 43%
    08:00 +31°C° 0.1 mm 1 mps 656 mmHg 36%
    09:00 +32°C° 0 mm 1 mps 656 mmHg 33%
    10:00 +34°C° 0 mm 2 mps 657 mmHg 31%
    11:00 +35°C° 0 mm 2 mps 657 mmHg 28%
    12:00 +36°C° 0 mm 2 mps 656 mmHg 27%
    13:00 +37°C° 0 mm 3 mps 656 mmHg 25%
    14:00 +37°C° 0 mm 3 mps 656 mmHg 24%
    15:00 +37°C° 0.1 mm 3 mps 655 mmHg 23%
    16:00 +37°C° 0.1 mm 3 mps 655 mmHg 23%
    17:00 +37°C° 0.1 mm 3 mps 655 mmHg 22%
    18:00 +36°C° 0 mm 2 mps 655 mmHg 26%
    19:00 +33°C° 0 mm 1 mps 654 mmHg 30%
    20:00 +31°C° 0 mm 1 mps 654 mmHg 34%
    21:00 +30°C° 0 mm 1 mps 654 mmHg 35%
    22:00 +30°C° 0 mm 1 mps 655 mmHg 36%
    23:00 +29°C° 0 mm 1 mps 655 mmHg 38%

    Day after tomorrow, 28 June, Wednesday

    Time Temperature Precipitation Wind Pressure Humidity
    00:00 +28°C° 0 mm 1 mps 655 mmHg 39%
    01:00 +28°C° 0 mm 1 mps 654 mmHg 40%
    02:00 +27°C° 0 mm 1 mps 654 mmHg 42%
    03:00 +27°C° 0.1 mm 1 mps 654 mmHg 44%
    04:00 +26°C° 0.1 mm 1 mps 654 mmHg 46%
    05:00 +23°C° 0.1 mm 0 mps 654 mmHg 48%
    06:00 +27°C° 0 mm 1 mps 655 mmHg 42%
    07:00 +29°C° 0 mm 1 mps 655 mmHg 36%
    08:00 +31°C° 0 mm 1 mps 656 mmHg 31%
    09:00 +32°C° 0 mm 1 mps 656 mmHg 29%
    10:00 +34°C° 0 mm 2 mps 656 mmHg 27%
    11:00 +35°C° 0 mm 2 mps 656 mmHg 25%
    12:00 +35°C° 0 mm 3 mps 656 mmHg 24%
    13:00 +36°C° 0 mm 3 mps 656 mmHg 23%
    14:00 +36°C° 0 mm 3 mps 656 mmHg 23%
    15:00 +36°C° 0.1 mm 3 mps 655 mmHg 23%
    16:00 +36°C° 0.1 mm 3 mps 655 mmHg 23%
    17:00 +36°C° 0.1 mm 3 mps 655 mmHg 24%
    18:00 +34°C° 0.2 mm 2 mps 655 mmHg 29%
    19:00 +32°C° 0.2 mm 1 mps 654 mmHg 34%
    20:00 +30°C° 0.2 mm 1 mps 654 mmHg 39%
    21:00 +29°C° 0.3 mm 1 mps 654 mmHg 41%
    22:00 +29°C° 0.3 mm 1 mps 655 mmHg 42%
    23:00 +28°C° 0.3 mm 1 mps 655 mmHg 44%

    29 June, Thursday

    Time Temperature Precipitation Wind Pressure Humidity
    00:00 +28°C° 0.2 mm 1 mps 655 mmHg 46%
    01:00 +27°C° 0.2 mm 1 mps 654 mmHg 48%
    02:00 +27°C° 0.2 mm 1 mps 654 mmHg 49%
    03:00 +24°C° 0.1 mm 0 mps 654 mmHg 51%
    04:00 +24°C° 0.1 mm 0 mps 654 mmHg 53%
    05:00 +24°C° 0.1 mm 0 mps 654 mmHg 54%
    06:00 +25°C° 0 mm 0 mps 654 mmHg 49%
    07:00 +28°C° 0 mm 1 mps 655 mmHg 45%
    08:00 +29°C° 0 mm 1 mps 655 mmHg 40%
    09:00 +30°C° 0 mm 1 mps 655 mmHg 37%
    10:00 +32°C° 0 mm 2 mps 655 mmHg 34%
    11:00 +34°C° 0 mm 3 mps 656 mmHg 31%
    12:00 +34°C° 0.2 mm 3 mps 655 mmHg 31%
    13:00 +35°C° 0.2 mm 3 mps 655 mmHg 31%
    14:00 +35°C° 0.2 mm 3 mps 655 mmHg 31%
    15:00 +35°C° 0.4 mm 3 mps 654 mmHg 32%
    16:00 +35°C° 0.4 mm 3 mps 654 mmHg 33%
    17:00 +34°C° 0.4 mm 3 mps 654 mmHg 34%
    18:00 +32°C° 0.6 mm 2 mps 653 mmHg 39%
    19:00 +30°C° 0.6 mm 1 mps 653 mmHg 45%
    20:00 +29°C° 0.6 mm 1 mps 653 mmHg 50%
    21:00 +28°C° 0.5 mm 1 mps 653 mmHg 52%
    22:00 +28°C° 0.5 mm 1 mps 653 mmHg 54%
    23:00 +27°C° 0.5 mm 1 mps 653 mmHg 56%

    30 June, Friday

    Time Temperature Precipitation Wind Pressure Humidity
    00:00 +26°C° 0.3 mm 1 mps 653 mmHg 57%
    01:00 +26°C° 0.3 mm 1 mps 653 mmHg 58%
    02:00 +25°C° 0.3 mm 1 mps 652 mmHg 59%
    03:00 +25°C° 0.2 mm 1 mps 652 mmHg 60%
    04:00 +24°C° 0.2 mm 1 mps 652 mmHg 61%
    05:00 +24°C° 0.2 mm 1 mps 652 mmHg 62%
    06:00 +26°C° 0 mm 1 mps 652 mmHg 54%
    07:00 +27°C° 0 mm 1 mps 653 mmHg 46%
    08:00 +29°C° 0 mm 1 mps 653 mmHg 38%
    09:00 +30°C° 0 mm 1 mps 653 mmHg 34%
    10:00 +31°C° 0 mm 2 mps 653 mmHg 31%
    11:00 +34°C° 0 mm 2 mps 653 mmHg 27%
    12:00 +34°C° 0 mm 2 mps 653 mmHg 25%
    13:00 +35°C° 0 mm 3 mps 653 mmHg 24%
    14:00 +36°C° 0 mm 3 mps 653 mmHg 22%
    15:00 +36°C° 0 mm 3 mps 653 mmHg 22%
    16:00 +36°C° 0 mm 3 mps 652 mmHg 22%
    17:00 +36°C° 0 mm 3 mps 652 mmHg 22%
    18:00 +34°C° 0 mm 2 mps 652 mmHg 25%
    19:00 +31°C° 0 mm 2 mps 652 mmHg 29%
    20:00 +29°C° 0 mm 1 mps 652 mmHg 32%
    21:00 +28°C° 0 mm 1 mps 652 mmHg 34%
    22:00 +28°C° 0 mm 1 mps 652 mmHg 37%
    23:00 +25°C° 0 mm 0 mps 652 mmHg 39%

    1 July, Saturday

    Time Temperature Precipitation Wind Pressure Humidity
    00:00 +27°C° 0 mm 1 mps 652 mmHg 40%
    01:00 +26°C° 0 mm 1 mps 652 mmHg 41%
    02:00 +25°C° 0 mm 1 mps 652 mmHg 42%
    03:00 +25°C° 0 mm 1 mps 652 mmHg 43%
    04:00 +24°C° 0 mm 1 mps 652 mmHg 44%
    05:00 +24°C° 0 mm 1 mps 652 mmHg 44%
    06:00 +26°C° 0 mm 1 mps 652 mmHg 38%
    07:00 +28°C° 0 mm 1 mps 653 mmHg 31%
    08:00 +30°C° 0 mm 1 mps 654 mmHg 24%
    09:00 +32°C° 0 mm 1 mps 654 mmHg 21%
    10:00 +34°C° 0 mm 2 mps 654 mmHg 18%
    11:00 +35°C° 0 mm 2 mps 654 mmHg 16%
    12:00 +36°C° 0 mm 2 mps 654 mmHg 15%
    13:00 +37°C° 0 mm 3 mps 653 mmHg 14%
    14:00 +38°C° 0 mm 3 mps 653 mmHg 13%
    15:00 +37°C° 0 mm 3 mps 653 mmHg 13%
    16:00 +37°C° 0 mm 3 mps 653 mmHg 13%
    17:00 +37°C° 0 mm 3 mps 652 mmHg 13%
    18:00 +35°C° 0 mm 2 mps 652 mmHg 16%
    19:00 +32°C° 0 mm 1 mps 652 mmHg 19%
    20:00 +30°C° 0 mm 1 mps 652 mmHg 22%
    21:00 +29°C° 0 mm 1 mps 652 mmHg 23%
    22:00 +28°C° 0 mm 1 mps 652 mmHg 24%
    23:00 +28°C° 0 mm 1 mps 653 mmHg 25%
    Show more